Location: Dominguez Junction
(33.8634°N, 118.2179°W)
Time: 17:47:00
(UTC+00:00)

ERS-2 - Pass Details

Date: 29 October 2020
Orbit: 493 x 498 km, 98.6° (Epoch: 24 November)

Event Time Altitude Azimuth Distance (km) Brightness Sun altitude
Rises 12:02:42 0° 146° (SE) 2,564 6.2 -27.0°
Reaches altitude 10° 12:04:54 10° 136° (SE) 1,686 5.3 -26.5°
Maximum altitude 12:08:09 32° 72° (ENE) 873 3.8 -25.8°
Enters shadow 12:10:35 15° 16° (NNE) 1,389 4.5 -25.3°
